Find Starlink 6122

NORAD ID: 56128 Int'l Des: 2023-046 Owner: SPXS Country: US Constellation: starlink operational
LEOCIRCULAR

实时位置

正在加载3D地球...

关于 Starlink 6122

正在加载描述...

即将过境

Passes for default location (London). Set your location on the main map for personalized predictions.

高度历史

Loading altitude history...

两行轨道根数

1 56128U 23046AN 26139.29456524 .00000154 00000-0 15132-4 0 9991
2 56128 43.0031 108.6448 0000942 273.0416 87.0328 15.27575691172998
Epoch: May 19, 2026 • Age: 7 hours

当前状态

高度 485.8 km
速度 7.63 km/s
星下点 38.49°N, 144.12°E
发射日期 Mar 29, 2023
运行时间 3.1 years
类型 internet

技术详情

分类 Payload
质量 305.00 kg
干质量 290.00 kg
总质量 305.00 kg
长度 0.20 m
直径 2.80 m
跨度 9.00 m
形状 Box + pan
制造商 SPXS
平台类型 Starlink
阶段状态 In Orbit
所有者/国家 SPXS/US

Most Searched